Regional Weather Roundup
Issued by NWS

Home | Current Version | Previous Version | Graphics & Text | Print | Product List | Glossary On
Versions: 1 2 3 4 5 6 7 8 9 10 11 12 13 14 15 16 17 18 19 20 21 22 23 24 25 26 27 28 29 30 31 32 33 34 35 36 37 38 39 40 41 42 43 44 45 46 47 48 49 50
000
ASUS43 KDMX 050407
RWRIA

WEATHER ROUNDUP FOR IOWA
NATIONAL WEATHER SERVICE DES MOINES IA
1100 PM CDT TUE AUG 04 2015

NOTE: "FAIR" INDICATES FEW OR NO CLOUDS BELOW 12,000 FEET WITH NO
SIGNIFICANT WEATHER AND/OR OBSTRUCTIONS TO VISIBILITY.

* - THESE STATIONS ARE NOT NWS STATIONS...THUS NOT UNDER NWS
QUALITY CONTROL.  THEY ALSO DO NOT REPORT WEATHER SUCH
AS PRECIPITATION OR FOG.

IAZ001>003-012>014-020>022-031>034-043>046-050500-
   NORTHWEST IOWA

CITY           SKY/WX    TMP DP  RH WIND       PRES   REMARKS
CARROLL *      CLOUDY    66  64  94 SE5       30.01S
CHEROKEE *     MOCLDY    66  64  94 E3        30.02R
DENISON *      CLOUDY    70  61  73 E13G20    29.99S
LE MARS *      MOCLDY    72  64  78 E7        30.01S
ORANGE CITY *  CLEAR     66  63  88 E3        30.02R
SHELDON *      CLEAR     64  61  88 E6        30.02R
SIOUX CITY     LGT RAIN  68  59  73 SE15      30.00R
SPENCER        MOCLDY    64  58  80 E5        30.04R
STORM LAKE *   CLEAR     66  64  94 E6        30.03S
$$

IAZ055>058-069>071-079>083-090>094-050500-
   SOUTHWEST IOWA

CITY           SKY/WX    TMP DP  RH WIND       PRES   REMARKS
ATLANTIC *     CLOUDY    70  64  83 NE6       29.99S
AUDUBON *      CLOUDY    68  64  88 N6        30.04R
CLARINDA *     CLEAR     72  72 100 E6        29.99S
COUNCIL BLFS * CLEAR     70  66  88 E8        29.97F
CRESTON *      CLEAR     68  66  94 E6        30.02S
HARLAN  *      MOCLDY    68  68 100 NE5       30.02F
LAMONI         MOCLDY    71  68  90 E5        30.01S
RED OAK *      CLEAR     70  68  94 CALM      29.97F
SHENANDOAH *   CLEAR     70  70 100 CALM      29.97S
$$

IAZ047>049-059>061-072>074-084-050500-
   CENTRAL IOWA

CITY           SKY/WX    TMP DP  RH WIND       PRES   REMARKS
AMES           MOCLDY    65  63  93 SE3       30.02R
ANKENY *       CLOUDY    70  66  88 E3        30.01S
CHARITON *     MOCLDY    70  66  88 SE6       30.01F
DES MOINES     LGT RAIN  73  62  68 E7        30.00F
GRINNELL*      PTCLDY    66  63  88 CALM      30.04S
KNOXVILLE *    CLOUDY    70  64  83 E6        30.01S
MARSHALLTOWN   PTCLDY    66  59  78 E6        30.02F
PELLA *        MOCLDY    68  66  94 CALM      30.03F
PERRY *        CLOUDY    68  66  94 E3        30.01S
$$

IAZ004>006-015-016-023>025-035-036-050500-
   NORTH CENTRAL IOWA

CITY           SKY/WX    TMP DP  RH WIND       PRES   REMARKS
ALGONA *       CLEAR     64  57  77 SE5       30.04S
CLARION *      PTCLDY    63  59  88 E8        30.03S
ESTHERVILLE    PTCLDY    59  56  89 E5        30.03S
FORT DODGE *   MOCLDY    64  57  77 E8        30.04R
MASON CITY     PTCLDY    57  55  93 CALM      30.06S
FOREST CITY *  CLEAR     55  55 100 CALM      30.04S
IOWA FALLS *     N/A     66  55  68 NE5       30.04F
$$

IAZ007>011-017>019-026>030-037>042-050>054-066-050500-
   NORTHEAST IOWA

CITY           SKY/WX    TMP DP  RH WIND       PRES   REMARKS
CEDAR RAPIDS   PTCLDY    69  59  70 CALM      30.03S
CHARLES CITY * CLEAR     59  59 100 CALM      30.05S
CLINTON *      PTCLDY    63  57  82 NE5       30.06S
DECORAH *      CLEAR     61  57  88 CALM      30.04S
DUBUQUE        PTCLDY    60  54  80 CALM      30.05S
MONTICELLO *   CLEAR     59  57  94 CALM      30.04S
OELWEIN *      CLEAR     61  59  94 NE5       30.05S
WATERLOO       PTCLDY    61  58  90 E3        30.03S
$$

IAZ064-065-067-068-078-050500-
   EAST CENTRAL IOWA

CITY           SKY/WX    TMP DP  RH WIND       PRES   REMARKS
DAVENPORT      PTCLDY    65  63  93 NW3       30.05R
IOWA CITY      MOCLDY    69  64  84 CALM      30.04S
MT. PLEASANT * CLEAR     68  63  83 CALM      30.03S
MUSCATINE *    CLEAR     66  64  94 CALM      30.03S
QUAD CITIES    PTCLDY    67  63  87 CALM      30.04R
$$

IAZ062-063-075>077-085>089-095>099-050500-
   SOUTHEAST IOWA

CITY           SKY/WX    TMP DP  RH WIND       PRES   REMARKS
BURLINGTON     PTCLDY    68  63  84 N5        30.03S
FAIRFIELD *    MOCLDY    66  63  88 CALM      30.04S
FORT MADISON * PTCLDY    66  64  94 CALM      30.04R
KEOKUK *       PTCLDY    70  68  94 CALM      30.02S
OSKALOOSA *      N/A     64  63  94 CALM      30.04S
CENTERVILLE *  MOCLDY    68  66  94 E6        30.04R
OTTUMWA        MOCLDY    68  66  93 E5        30.02R
WASHINGTON *   CLEAR     64  63  94 CALM      30.05S
$$

ABBREVIATIONS USED IN REMARKS
   TC - TEMPERATURES IN CELSIUS
  WCI - WIND CHILL INDEX
   HX - HEAT INDEX
  VSB - VISIBILITY
$$




USA.gov is the U.S. government's official web portal to all federal, state and local government web resources and services.